Location: Alma
(38.7220°N, 88.9090°W)
Time: 13:53:44
(UTC-06:00)

Transit 2A Rocket - Visible Passes

Search period start: 15 November 2019 00:00
Search period end: 25 November 2019 00:00
Orbit: 594 x 909 km, 66.7° (Epoch: 14 November)

Date Brightness Start Highest point End Pass type
(mag) Time Alt. Az. Time Alt. Az. Time Alt. Az.
16 Nov 7.2 05:43:04 10° NNE 05:44:47 12° NE 05:46:31 10° ENE visible
18 Nov 6.3 05:58:49 10° N 06:02:39 29° NE 06:06:39 10° ESE visible
19 Nov 7.1 05:17:00 10° N 05:19:56 17° NE 05:22:55 10° E visible
21 Nov 5.7 05:33:27 10° NNW 05:37:39 43° ENE 05:42:04 10° SE visible
22 Nov 6.6 04:51:30 11° N 04:55:00 24° NE 04:58:45 10° ESE visible
23 Nov 7.1 04:10:34 12° NNE 04:12:13 14° NE 04:14:42 10° E visible
23 Nov 4.6 05:50:43 10° NW 05:55:05 63° WSW 05:59:44 10° SSE visible
24 Nov 4.9 05:09:37 20° NNW 05:12:35 67° ENE 05:17:15 10° SE visible
